Time,TemperatureF,DewpointF,PressureIn,WindDirection,WindDirectionDegrees,WindSpeedMPH,WindSpeedGustMPH,Humidity,HourlyPrecipIn,Conditions,Clouds,dailyrainin,SoftwareType,DateUTC
2013-06-09 00:08:00,65.7,65.1,30.02,West,270,3.2,-999.0,98,-99.99,,,0.00,Acu-Link.com,2013-06-09 04:08:00,
2013-06-09 00:23:00,65.5,64.9,30.01,WSW,247,2.2,-999.0,98,-99.99,,,0.00,Acu-Link.com,2013-06-09 04:23:00,
2013-06-09 00:39:00,65.5,64.9,30.02,WNW,292,3.7,-999.0,98,-99.99,,,0.00,Acu-Link.com,2013-06-09 04:39:00,
2013-06-09 00:54:00,65.3,64.7,30.02,West,270,1.7,-999.0,98,-99.99,,,0.00,Acu-Link.com,2013-06-09 04:54:00,
2013-06-09 01:09:00,64.8,64.2,30.01,East,90,0.0,-999.0,98,-99.99,,,0.00,Acu-Link.com,2013-06-09 05:09:00,
2013-06-09 01:24:00,64.4,63.8,30.03,SSW,202,0.0,-999.0,98,-99.99,,,0.00,Acu-Link.com,2013-06-09 05:24:00,
2013-06-09 01:40:00,64.2,63.6,30.03,NNW,337,3.2,-999.0,98,-99.99,,,0.00,Acu-Link.com,2013-06-09 05:40:00,
2013-06-09 01:55:00,64.2,63.6,30.01,NE,45,2.2,-999.0,98,-99.99,,,0.00,Acu-Link.com,2013-06-09 05:55:00,
2013-06-09 02:10:00,64.2,63.6,30.02,NNE,22,1.7,-999.0,98,-99.99,,,0.00,Acu-Link.com,2013-06-09 06:10:00,
2013-06-09 02:25:00,64.0,63.4,30.01,West,270,2.2,-999.0,98,-99.99,,,0.00,Acu-Link.com,2013-06-09 06:25:00,
2013-06-09 02:41:00,63.7,63.1,30.00,West,270,0.0,-999.0,98,-99.99,,,0.00,Acu-Link.com,2013-06-09 06:41:00,
2013-06-09 02:56:00,63.3,62.7,30.00,West,270,0.0,-999.0,98,-99.99,,,0.00,Acu-Link.com,2013-06-09 06:56:00,
2013-06-09 03:11:00,63.1,62.5,30.00,WSW,247,0.0,-999.0,98,-99.99,,,0.00,Acu-Link.com,2013-06-09 07:11:00,
2013-06-09 03:27:00,63.3,62.7,30.01,WNW,292,2.2,-999.0,98,-99.99,,,0.00,Acu-Link.com,2013-06-09 07:27:00,
2013-06-09 03:42:00,63.7,63.1,30.01,West,270,2.7,-999.0,98,-99.99,,,0.00,Acu-Link.com,2013-06-09 07:42:00,
2013-06-09 03:57:00,63.7,63.1,30.00,WNW,292,2.2,-999.0,98,-99.99,,,0.00,Acu-Link.com,2013-06-09 07:57:00,
2013-06-09 04:12:00,63.7,63.1,30.01,NW,315,1.7,-999.0,98,-99.99,,,0.00,Acu-Link.com,2013-06-09 08:12:00,
2013-06-09 04:27:00,63.7,63.1,30.00,NW,315,2.7,-999.0,98,-99.99,,,0.00,Acu-Link.com,2013-06-09 08:27:00,
2013-06-09 04:43:00,63.7,63.1,30.01,WNW,292,2.2,-999.0,98,-99.99,,,0.00,Acu-Link.com,2013-06-09 08:43:00,
2013-06-09 04:58:00,63.7,63.1,30.01,WNW,292,2.2,-999.0,98,-99.99,,,0.00,Acu-Link.com,2013-06-09 08:58:00,
2013-06-09 05:13:00,63.3,62.7,30.02,West,270,2.7,-999.0,98,-99.99,,,0.00,Acu-Link.com,2013-06-09 09:13:00,
2013-06-09 05:28:00,62.8,62.2,30.03,West,270,0.0,-999.0,98,-99.99,,,0.00,Acu-Link.com,2013-06-09 09:28:00,
2013-06-09 05:43:00,62.6,62.0,30.02,West,270,0.0,-999.0,98,-99.99,,,0.00,Acu-Link.com,2013-06-09 09:43:00,
2013-06-09 05:59:00,62.4,61.8,30.03,West,270,0.0,-999.0,98,-99.99,,,0.00,Acu-Link.com,2013-06-09 09:59:00,
2013-06-09 06:14:00,62.2,61.6,30.04,West,270,0.0,-999.0,98,-99.99,,,0.00,Acu-Link.com,2013-06-09 10:14:00,
2013-06-09 06:29:00,63.0,62.4,30.06,West,270,0.0,-999.0,98,-99.99,,,0.00,Acu-Link.com,2013-06-09 10:29:00,
2013-06-09 06:44:00,63.3,62.7,30.06,West,270,0.0,-999.0,98,-99.99,,,0.00,Acu-Link.com,2013-06-09 10:44:00,
2013-06-09 07:00:00,63.7,63.1,30.05,West,270,0.0,-999.0,98,-99.99,,,0.00,Acu-Link.com,2013-06-09 11:00:00,
2013-06-09 07:15:00,64.2,63.6,30.05,WNW,292,0.0,-999.0,98,-99.99,,,0.00,Acu-Link.com,2013-06-09 11:15:00,
2013-06-09 07:30:00,64.2,63.6,30.05,West,270,2.2,-999.0,98,-99.99,,,0.00,Acu-Link.com,2013-06-09 11:30:00,
2013-06-09 07:45:00,64.2,63.6,30.05,WNW,292,0.0,-999.0,98,-99.99,,,0.00,Acu-Link.com,2013-06-09 11:45:00,
2013-06-09 08:01:00,65.8,65.2,30.07,NE,45,0.0,-999.0,98,-99.99,,,0.00,Acu-Link.com,2013-06-09 12:01:00,
2013-06-09 08:16:00,66.0,65.4,30.05,WNW,292,2.2,-999.0,98,-99.99,,,0.00,Acu-Link.com,2013-06-09 12:16:00,
2013-06-09 08:31:00,66.0,65.4,30.05,NW,315,1.7,-999.0,98,-99.99,,,0.00,Acu-Link.com,2013-06-09 12:31:00,
2013-06-09 08:47:00,68.0,67.4,30.06,NW,315,0.0,-999.0,98,-99.99,,,0.00,Acu-Link.com,2013-06-09 12:47:00,
2013-06-09 09:02:00,71.1,70.5,30.06,East,90,2.7,-999.0,98,-99.99,,,0.00,Acu-Link.com,2013-06-09 13:02:00,
2013-06-09 09:17:00,76.6,76.0,30.06,ESE,112,2.2,-999.0,98,-99.99,,,0.00,Acu-Link.com,2013-06-09 13:17:00,
2013-06-09 09:33:00,74.7,74.1,30.06,South,180,1.1,-999.0,98,-99.99,,,0.00,Acu-Link.com,2013-06-09 13:33:00,
2013-06-09 09:48:00,73.0,72.4,30.05,NNE,22,1.1,-999.0,98,-99.99,,,0.00,Acu-Link.com,2013-06-09 13:48:00,
2013-06-09 10:03:00,72.9,72.3,30.05,West,270,0.0,-999.0,98,-99.99,,,0.00,Acu-Link.com,2013-06-09 14:03:00,
2013-06-09 10:19:00,75.0,74.4,30.04,WNW,292,0.0,-999.0,98,-99.99,,,0.00,Acu-Link.com,2013-06-09 14:19:00,
2013-06-09 10:34:00,74.3,73.7,30.05,SSE,157,2.2,-999.0,98,-99.99,,,0.00,Acu-Link.com,2013-06-09 14:34:00,
2013-06-09 10:49:00,75.2,74.6,30.04,ESE,112,3.2,-999.0,98,-99.99,,,0.00,Acu-Link.com,2013-06-09 14:49:00,
2013-06-09 11:04:00,75.7,75.1,30.04,ESE,112,2.2,-999.0,98,-99.99,,,0.00,Acu-Link.com,2013-06-09 15:04:00,
2013-06-09 11:19:00,74.5,73.9,30.04,ESE,112,1.7,-999.0,98,-99.99,,,0.00,Acu-Link.com,2013-06-09 15:19:00,
2013-06-09 11:35:00,75.4,74.8,30.04,NNE,22,1.1,-999.0,98,-99.99,,,0.00,Acu-Link.com,2013-06-09 15:35:00,
2013-06-09 11:50:00,76.6,76.0,30.04,SE,135,1.7,-999.0,98,-99.99,,,0.00,Acu-Link.com,2013-06-09 15:50:00,
2013-06-09 12:05:00,78.1,77.5,30.04,ENE,67,2.7,-999.0,98,-99.99,,,0.00,Acu-Link.com,2013-06-09 16:05:00,
2013-06-09 12:20:00,77.9,77.3,30.03,ESE,112,1.7,-999.0,98,-99.99,,,0.00,Acu-Link.com,2013-06-09 16:20:00,
2013-06-09 12:36:00,78.1,77.5,30.01,SSE,157,2.7,-999.0,98,-99.99,,,0.00,Acu-Link.com,2013-06-09 16:36:00,
2013-06-09 12:51:00,77.4,76.8,30.01,SE,135,2.2,-999.0,98,-99.99,,,0.00,Acu-Link.com,2013-06-09 16:51:00,
2013-06-09 13:06:00,73.4,72.8,30.01,SSW,202,4.2,-999.0,98,-99.99,,,0.01,Acu-Link.com,2013-06-09 17:06:00,
2013-06-09 13:22:00,71.1,70.5,30.00,SE,135,4.7,-999.0,98,-99.99,,,0.12,Acu-Link.com,2013-06-09 17:22:00,
2013-06-09 13:37:00,71.4,70.8,30.00,ESE,112,2.7,-999.0,98,-99.99,,,0.12,Acu-Link.com,2013-06-09 17:37:00,
2013-06-09 13:52:00,71.4,70.8,29.99,South,180,4.2,-999.0,98,-99.99,,,0.13,Acu-Link.com,2013-06-09 17:52:00,
2013-06-09 14:07:00,74.7,74.1,29.99,SE,135,2.2,-999.0,98,-99.99,,,0.13,Acu-Link.com,2013-06-09 18:07:00,
2013-06-09 14:23:00,76.1,75.5,29.98,SSE,157,4.7,-999.0,98,-99.99,,,0.13,Acu-Link.com,2013-06-09 18:23:00,
2013-06-09 14:38:00,76.5,75.9,29.96,SSE,157,4.2,-999.0,98,-99.99,,,0.13,Acu-Link.com,2013-06-09 18:38:00,
2013-06-09 14:53:00,75.7,75.1,29.96,SSE,157,3.7,-999.0,98,-99.99,,,0.13,Acu-Link.com,2013-06-09 18:53:00,
2013-06-09 15:09:00,72.5,71.9,29.97,SE,135,2.7,-999.0,98,-99.99,,,0.16,Acu-Link.com,2013-06-09 19:09:00,
2013-06-09 15:24:00,71.4,70.8,29.96,SSE,157,4.2,-999.0,98,-99.99,,,0.24,Acu-Link.com,2013-06-09 19:24:00,
2013-06-09 15:39:00,69.4,68.8,29.97,SE,135,2.7,-999.0,98,-99.99,,,0.43,Acu-Link.com,2013-06-09 19:39:00,
2013-06-09 15:54:00,70.9,70.3,29.98,SSE,157,3.2,-999.0,98,-99.99,,,0.43,Acu-Link.com,2013-06-09 19:54:00,
2013-06-09 16:09:00,68.2,67.6,30.00,South,180,3.2,-999.0,98,-99.99,,,0.44,Acu-Link.com,2013-06-09 20:09:00,
2013-06-09 16:24:00,66.9,66.3,30.00,SSE,157,3.2,-999.0,98,-99.99,,,0.58,Acu-Link.com,2013-06-09 20:24:00,
2013-06-09 16:40:00,66.2,65.6,30.01,South,180,3.2,-999.0,98,-99.99,,,0.60,Acu-Link.com,2013-06-09 20:40:00,
2013-06-09 16:55:00,66.0,65.4,30.01,SE,135,2.2,-999.0,98,-99.99,,,0.61,Acu-Link.com,2013-06-09 20:55:00,
2013-06-09 17:10:00,66.0,65.4,30.00,SSE,157,2.2,-999.0,98,-99.99,,,0.62,Acu-Link.com,2013-06-09 21:10:00,
2013-06-09 17:26:00,66.4,65.8,30.00,SSE,157,2.2,-999.0,98,-99.99,,,0.63,Acu-Link.com,2013-06-09 21:26:00,
2013-06-09 17:41:00,66.7,66.1,30.01,SSE,157,2.7,-999.0,98,-99.99,,,0.63,Acu-Link.com,2013-06-09 21:41:00,
2013-06-09 18:12:00,67.5,66.9,30.00,ESE,112,1.1,-999.0,98,-99.99,,,0.63,Acu-Link.com,2013-06-09 22:12:00,
2013-06-09 18:27:00,67.5,66.9,29.99,ESE,112,5.8,-999.0,98,-99.99,,,0.63,Acu-Link.com,2013-06-09 22:27:00,
2013-06-09 18:42:00,67.1,66.5,29.99,ESE,112,3.2,-999.0,98,-99.99,,,0.63,Acu-Link.com,2013-06-09 22:42:00,
2013-06-09 18:58:00,66.9,66.3,30.00,ESE,112,2.7,-999.0,98,-99.99,,,0.63,Acu-Link.com,2013-06-09 22:58:00,
2013-06-09 19:13:00,66.6,66.0,30.00,SE,135,0.0,-999.0,98,-99.99,,,0.63,Acu-Link.com,2013-06-09 23:13:00,
2013-06-09 19:28:00,66.4,65.8,29.99,ESE,112,2.2,-999.0,98,-99.99,,,0.63,Acu-Link.com,2013-06-09 23:28:00,
2013-06-09 19:44:00,66.0,65.4,29.99,SSE,157,2.7,-999.0,98,-99.99,,,0.63,Acu-Link.com,2013-06-09 23:44:00,
2013-06-09 19:59:00,66.0,65.4,29.99,ESE,112,3.2,-999.0,98,-99.99,,,0.64,Acu-Link.com,2013-06-09 23:59:00,
2013-06-09 20:14:00,65.8,65.2,29.99,ESE,112,2.7,-999.0,98,-99.99,,,0.76,Acu-Link.com,2013-06-10 00:14:00,
2013-06-09 20:29:00,65.5,64.9,29.98,SE,135,3.2,-999.0,98,-99.99,,,0.84,Acu-Link.com,2013-06-10 00:29:00,
2013-06-09 20:45:00,65.5,64.9,29.98,ESE,112,2.7,-999.0,98,-99.99,,,0.91,Acu-Link.com,2013-06-10 00:45:00,
2013-06-09 21:00:00,65.3,64.7,29.98,SE,135,3.2,-999.0,98,-99.99,,,0.95,Acu-Link.com,2013-06-10 01:00:00,
2013-06-09 21:15:00,65.5,64.9,29.99,ESE,112,4.7,-999.0,98,-99.99,,,0.97,Acu-Link.com,2013-06-10 01:15:00,
2013-06-09 21:30:00,65.1,64.5,29.99,ESE,112,4.7,-999.0,98,-99.99,,,1.02,Acu-Link.com,2013-06-10 01:30:00,
2013-06-09 21:47:00,65.3,64.7,30.00,ESE,112,3.2,-999.0,98,-99.99,,,1.05,Acu-Link.com,2013-06-10 01:47:00,
2013-06-09 22:02:00,65.3,64.7,29.99,SE,135,2.7,-999.0,98,-99.99,,,1.05,Acu-Link.com,2013-06-10 02:02:00,
2013-06-09 22:18:00,65.1,64.5,29.99,SE,135,4.7,-999.0,98,-99.99,,,1.06,Acu-Link.com,2013-06-10 02:18:00,
2013-06-09 22:34:00,65.3,64.7,29.99,SSE,157,3.2,-999.0,98,-99.99,,,1.09,Acu-Link.com,2013-06-10 02:34:00,
2013-06-09 22:50:00,65.3,64.7,30.00,ESE,112,7.8,-999.0,98,-99.99,,,1.09,Acu-Link.com,2013-06-10 02:50:00,
2013-06-09 23:05:00,65.3,64.7,29.99,SW,225,4.2,-999.0,98,-99.99,,,1.10,Acu-Link.com,2013-06-10 03:05:00,
2013-06-09 23:21:00,65.3,64.7,30.01,ESE,112,6.3,-999.0,98,-99.99,,,1.12,Acu-Link.com,2013-06-10 03:21:00,
2013-06-09 23:36:00,65.3,64.7,29.99,ESE,112,3.2,-999.0,98,-99.99,,,1.13,Acu-Link.com,2013-06-10 03:36:00,
2013-06-09 23:53:00,65.3,64.7,29.99,SSE,157,5.8,-999.0,98,-99.99,,,1.13,Acu-Link.com,2013-06-10 03:53:00,